Location: Trout Lake
(45.9980°N, 121.5270°W)
Time: 13:54:12
(UTC-08:00)

Daily predictions for brighter satellites

Satellite Brightness Start Highest point End
(mag) Time Altitude Azimuth Time Altitude Azimuth Time Altitude Azimuth
CENTAUR R/B 2.8 16:47:16 10° SW 16:53:24 75° NW 17:00:29 10° NE
COSMOS 2441 4.4 16:48:35 10° SSE 16:53:26 72° ENE 16:58:20 10° N
COSMOS 2455 2.9 16:47:31 10° SSW 16:53:30 78° ESE 16:59:32 10° NE
Timation 1 Rocket 4.5 16:50:54 10° SSW 16:56:49 65° ESE 17:02:47 10° NNE
Cosmos 1733 Rocket 3.1 16:52:24 10° N 16:56:51 83° ENE 17:01:19 10° S
Cosmos 1908 Rocket 4.1 16:53:33 10° N 16:57:36 36° ENE 17:01:36 10° SE
Meteor 1-25 Rocket 4.5 16:56:20 10° N 17:02:02 51° ENE 17:07:39 10° SSE
IDEFIX/ARIANE 42P 3.5 16:58:12 10° S 17:03:18 54° W 17:08:26 10° NNW
Cosmos 1782 4.0 17:02:00 10° SE 17:05:08 22° E 17:08:16 10° NE
Cosmos 1844 Rocket 3.4 17:02:05 10° SW 17:07:36 54° WNW 17:13:08 10° NNE
Cosmos 44 Rocket 3.8 17:07:22 10° NNW 17:11:54 38° NE 17:16:31 10° ESE
Cosmos 1862 Rocket 3.6 17:08:24 10° S 17:12:50 87° E 17:17:21 10° N
Cosmos 304 Rocket 4.0 17:08:04 10° NNW 17:12:53 79° WSW 17:17:39 10° SSE
CZ-2C R/B 3.3 17:08:27 10° S 17:13:24 58° W 17:18:31 10° NNW
SJ-7 4.4 17:11:30 10° SSE 17:15:37 68° ENE 17:19:41 10° N
Okean 1-7 4.0 17:15:24 10° SSE 17:19:08 28° E 17:22:53 10° NNE
Cosmos 2242 Rocket 4.3 17:16:56 10° SSW 17:21:25 60° WNW 17:25:54 10° N
Sich 1 Rocket 3.6 17:20:05 10° N 17:24:28 58° ENE 17:28:52 10° SSE
Cosmos 2233 Rocket 4.0 17:20:20 10° S 17:26:34 81° E 17:32:47 10° N
Cosmos 1763 Rocket 4.2 17:23:27 10° NNW 17:28:34 58° WSW 17:33:34 10° S
CSL-04 Debris 4.2 17:25:00 10° SSE 17:30:25 87° WSW 17:35:51 10° NNW
Cosmos 44 3.3 17:26:39 10° NNW 17:31:13 55° NE 17:36:01 10° SE
Lacrosse 5 3.3 17:27:44 10° WNW 17:31:55 25° N 17:35:34 12° NE
Cosmos 1833 Rocket 2.6 17:29:33 10° NNW 17:35:11 70° ENE 17:40:48 10° SE
AQUARIUS 4.2 17:32:00 10° SSE 17:36:29 85° WSW 17:41:01 10° NNW
USA 161 3.9 17:36:59 10° NW 17:38:06 13° WNW 17:39:14 10° WSW
USA 116 3.9 17:35:52 10° NNE 17:40:12 54° E 17:44:00 10° S
Cosmos 405 3.8 17:37:10 10° N 17:40:20 28° ENE 17:43:29 10° SE
SL-27 R/B 2.9 17:38:19 10° NNW 17:41:37 59° WSW 17:44:55 10° S
Cosmos 1782 Rocket 3.5 17:38:11 10° N 17:42:32 63° E 17:46:51 10° SSE
Meteor 1-10 Rocket 4.5 17:37:38 10° SSE 17:43:05 49° E 17:48:40 10° NNE
ATLAS 3B R/B 4.4 17:39:03 10° WNW 17:43:54 19° NNW 17:48:38 10° NNE
CORIOLIS 4.3 17:41:04 10° SSE 17:46:30 82° WSW 17:51:59 10° NNW
BREEZE-M R/B 3.7 17:44:18 10° W 17:46:45 36° SSW 17:50:27 10° SE
Meteor 1-28 Rocket 3.0 17:43:32 10° NNE 17:47:15 78° E 17:50:58 10° S
NOAA 12 4.5 17:42:54 10° SE 17:47:49 40° ENE 17:52:45 10° N
Cosmos 2297 3.8 17:42:37 10° S 17:48:10 56° ESE 17:53:13 13° NE
Cosmos 540 Rocket 3.4 17:43:45 10° NNW 17:48:58 85° ENE 17:54:08 10° SSE
COSMO-SKYMED 1 3.0 17:46:08 11° NNE 17:50:02 40° E 17:54:06 10° SSE
ALOS 2.7 17:45:59 10° SE 17:50:17 38° ENE 17:54:37 10° N
Cosmos 2278 Rocket 2.6 17:44:42 10° SW 17:50:20 65° WNW 17:56:00 10° NNE
COSMOS 2487 3.3 17:47:35 10° N 17:50:40 27° ENE 17:50:41 27° ENE
YAOGAN 1 2.4 17:46:57 10° SSE 17:51:16 77° ENE 17:55:36 10° N
SMAP 3.9 17:52:04 10° S 17:56:37 53° W 18:01:11 10° NNW
Cosmos 1606 2.6 17:53:47 10° S 17:57:33 90° W 18:01:21 10° N
Cosmos 1441 Rocket 3.8 17:55:14 10° SSE 17:58:49 35° E 17:59:39 31° ENE
Cosmos 968 Rocket 4.2 17:54:43 10° SSE 17:59:13 31° E 18:00:45 26° ENE
Landsat 4 3.6 17:56:38 11° NNE 18:00:17 75° ESE 18:04:05 10° S
Ariane Rocket 4.3 17:59:57 10° S 18:04:47 43° W 18:09:38 10° NNW
USA 234 4.0 18:01:47 23° E 18:04:48 33° SE 18:10:33 10° S
Cosmos 1503 Rocket 3.9 17:59:49 10° SSW 18:05:04 82° ESE 18:09:46 13° NNE
CZ-4C R/B 2.8 18:02:21 10° NW 18:09:22 69° NE 18:17:15 10° SE
EO 1 Del DPAF 3.2 18:07:34 27° NNE 18:09:29 59° ESE 18:13:14 10° S
Meteor 1-11 Rocket 3.7 18:05:10 10° N 18:11:00 61° ENE 18:16:38 10° SSE
Cosmos 1891 Rocket 4.3 18:05:02 10° S 18:11:07 68° E 18:17:07 10° NNE
Cosmos 1703 Rocket 4.2 18:08:30 10° SSW 18:12:54 58° WNW 18:17:19 10° N
METEOR-M 4.2 18:11:19 10° S 18:16:39 78° WSW 18:22:01 10° NNW
Cosmos 2221 Rocket 3.6 18:13:04 10° S 18:17:28 81° W 18:21:54 10° N
ERS-2 2.5 18:14:15 10° S 18:17:53 65° WSW 18:21:34 10° NNW
Cosmos 2151 Rocket 3.6 18:13:37 10° N 18:17:56 50° ENE 18:22:14 10° SSE
SKYMED 3 4.4 18:16:28 15° NNE 18:20:06 83° ESE 18:24:27 10° SSW
Nadezhda 4 Rocket 3.9 18:16:17 10° N 18:22:23 62° ENE 18:28:25 10° SSE
CZ-4 R/B 3.2 18:19:24 10° SSW 18:22:51 31° W 18:26:19 10° NNW
Cosmos 1602 3.8 18:21:55 10° NNW 18:25:46 76° W 18:29:36 10° S
Meteor 2-20 4.3 18:20:24 10° N 18:26:32 83° E 18:32:35 10° S
Cosmos 2082 Rocket 3.2 18:22:24 10° NW 18:27:51 49° WSW 18:33:15 10° S
Okean 2 Rocket 3.6 18:26:17 10° NNW 18:30:47 63° W 18:35:13 10° S
Cosmos 2034 Rocket 3.9 18:27:56 10° S 18:34:18 86° E 18:40:40 10° N
Cosmos 405 Rocket 2.8 18:30:50 10° SSW 18:34:35 69° WNW 18:35:43 41° N
SL-23 DEB 4.4 18:32:40 10° WNW 18:36:47 78° NNE 18:38:32 46° ESE
SKYMED 2 3.9 18:34:43 16° N 18:38:08 65° WNW 18:42:25 10° SSW
Timation 2 Rocket 4.0 18:34:42 10° NNW 18:41:33 90° ENE 18:48:04 10° SSE
Cosmos 1092 Rocket 3.9 18:35:29 10° N 18:41:35 61° ENE 18:47:41 10° SSE
BREEZE-M DEB (TANK) 3.6 18:41:56 10° WSW 18:43:16 36° WSW 18:43:16 36° WSW
CENTAUR R/B 4.2 18:39:54 10° W 18:45:21 27° NNW 18:49:38 16° NNE
SPOT 3 Rocket 4.4 18:49:57 10° S 18:54:59 50° W 19:00:04 10° NNW
USA 229 DEB 3.7 18:51:06 10° SSW 18:57:36 53° ESE 18:57:42 53° ESE
USA 229 3.7 18:51:13 10° SSW 18:57:42 53° ESE 18:57:46 53° ESE
FengYun 1-2 T 4.1 18:56:19 20° SSE 19:00:17 87° ENE 19:05:54 10° NNW
FENGYUN 3A 4.4 18:56:48 10° S 19:02:03 52° W 19:07:20 10° NNW
Cosmos 1538 Rocket 3.9 18:56:44 10° NNW 19:01:49 79° NNE 19:01:49 79° NNE
Meteor 1-5 Rocket 4.2 19:01:46 10° NNW 19:07:07 73° W 19:12:22 10° S
Lacrosse 5 3.5 19:11:54 10° NW 19:14:46 23° NNW 19:14:46 23° NNW
Cosmos 2369 Rocket 3.9 19:19:23 10° S 19:21:18 22° S 19:21:18 22° S
ALOS 4.4 19:23:57 10° SSW 19:27:50 25° W 19:31:43 10° NW
ATLAS 3B R/B 4.4 19:32:31 10° NNW 19:36:16 19° N 19:36:16 19° N
USA 234 3.4 19:49:09 67° WSW 19:49:09 67° WSW 19:54:45 10° WSW
CZ-4C R/B 4.3 19:51:22 10° NW 19:57:44 33° WSW 20:03:35 14° S
